Location: Unspecified
(0.0000°N, 1.0000°E)
Time: 09:12:10
(UTC+01:00)

Daily predictions for brighter satellites

Satellite Brightness Start Highest point End
(mag) Time Altitude Azimuth Time Altitude Azimuth Time Altitude Azimuth
Chandra Rocket (1) 4.1 18:36:07 10° NW 18:41:27 74° NE 19:04:25 10° ESE
NOSS 3-1 (A) 4.2 19:00:29 10° NNW 19:08:51 76° ENE 19:17:13 10° SSE
ARIANE 44L R/B 3.8 18:58:54 10° W 19:11:15 45° N 19:14:18 10° ENE
Ariane H10-3 2.6 19:03:10 10° W 19:11:56 51° N 19:14:34 10° ENE
Helios 1B rocket 3.7 19:09:14 10° NE 19:12:26 22° ESE 19:15:38 10° SSE
GPS 2-04 Rocket1 2.6 19:11:17 10° NW 19:15:05 59° NE 19:18:43 10° ESE
Meteor 1-12 Rocket 4.4 19:09:40 10° N 19:15:27 60° E 19:21:20 10° SSE
Cosmos 1461 3.8 19:16:10 10° NW 19:20:05 52° WSW 19:24:07 10° S
ATLAS 2AS CENTAUR R/B 3.9 19:15:23 10° NNE 19:20:30 20° ENE 19:25:18 10° ESE
SEDSat Delta rocket 2.8 19:19:04 10° NW 19:23:03 62° NE 19:27:16 10° ESE
COSMOS 2406 3.5 19:22:57 10° NNW 19:28:41 78° WSW 19:34:26 10° S
Cosmos 1340 3.7 19:29:29 10° SSE 19:32:42 26° E 19:35:08 14° NE
Meteor 1-23 Rocket 4.3 19:27:40 10° S 19:33:28 72° E 19:39:11 10° N
Cosmos 1452 Rocket 4.4 19:29:43 10° SSE 19:34:13 29° ESE 19:37:44 14° NE
BLOCK DM-SL R/B 4.4 19:11:21 10° W 19:37:35 90° S 19:41:59 14° E
Cosmos 1975 2.9 19:33:49 10° N 19:37:50 79° W 19:41:50 10° S
XTE 4.5 19:35:17 10° W 19:37:52 26° NNW 19:39:39 15° NNE
Cosmos 494 Rocket 4.1 19:33:47 10° N 19:38:54 55° ENE 19:44:01 10° SSE
ARIANE 3 DEB 4.2 19:36:54 10° WSW 19:40:11 24° S 19:42:21 10° SE
Cosmos 1484 Rocket 3.5 19:36:40 10° S 19:40:29 57° W 19:44:13 10° NNW
OAO 2 Rocket 3.3 19:37:33 10° SW 19:42:45 86° NW 19:46:21 19° NE
BLOCK DM-SL 4.2 19:36:21 10° W 19:43:21 66° S 19:50:40 10° ESE
Ariane H10+ 3.6 19:40:09 10° WSW 19:43:30 49° S 19:58:26 10° E
Ariane H10-3 2.3 19:36:44 10° W 19:46:27 67° S 19:49:04 16° ESE
Intercosmos 25 3.7 19:42:59 10° N 19:46:35 58° E 19:51:59 10° SSE
Intelsat 5-3 Rocket 2.6 19:44:27 10° NW 19:49:39 41° NNE 19:50:43 30° ENE
Meteor 2-4 Rocket 4.3 19:46:16 10° SSW 19:51:46 58° W 19:57:04 10° N
Ariane 42L R/B 3.8 19:48:29 10° WSW 19:51:56 24° SSW 19:53:39 12° SE
Meteor 1-29 2.9 19:49:46 18° NNE 19:52:13 66° ESE 19:55:42 10° S
Cosmos 1025 Rocket 4.3 19:49:58 10° SSW 19:54:04 43° W 19:58:11 10° NNW
Meteor 2-21 Rocket 4.4 19:48:22 10° N 19:54:29 75° E 20:00:34 10° S
EPKM 4.4 19:34:29 10° WSW 19:55:38 64° NNW 19:58:18 25° NE
Cosmos 2251 Rocket 3.8 19:52:19 10° NNW 19:57:35 73° WSW 20:02:49 10° S
Milstar 3 4.4 19:52:22 10° SSW 19:59:21 34° SE 20:06:53 18° E
Meteor 2-16 Rocket 4.4 19:53:35 10° N 19:59:35 64° E 20:05:37 10° SSE
Resurs 01 Rocket 2.6 19:56:32 10° SE 19:59:37 27° E 19:59:37 27° E
Cosmos 1666 4.4 20:03:56 20° SE 20:03:56 20° SE 20:05:35 10° SE
ARIANE 44L R/B 2.0 20:04:57 10° W 20:09:31 68° S 20:09:34 67° S
Cosmos 2369 Rocket 2.1 20:04:29 10° S 20:10:03 68° ESE 20:12:51 30° NNE
FREGAT/IRIS 2.8 20:07:17 10° S 20:10:23 74° W 20:11:46 30° NNW
Cosmos 1743 2.6 20:06:42 10° N 20:10:32 84° W 20:14:22 10° S
SAR-Lupe-4 4.0 20:07:57 10° SSE 20:10:39 42° ESE 20:10:39 42° ESE
Spelda 3.7 19:54:15 10° W 20:14:08 64° N 20:16:05 39° ENE
Cosmos 1515 4.0 20:11:03 10° S 20:14:16 46° ESE 20:14:16 46° ESE
Cosmos 1535 Rocket 4.4 20:11:29 10° N 20:17:41 85° E 20:23:49 10° S
Cosmos 1934 Rocket 3.9 20:14:53 10° N 20:21:06 68° E 20:27:25 10° S
Meteor 2-9 Rocket 4.0 20:25:56 55° ENE 20:26:20 56° E 20:31:32 10° SSE
ALOS 2.8 20:22:04 10° SSE 20:25:26 42° SE 20:25:26 42° SE
Cosmos 1420 Rocket 3.9 20:25:41 10° S 20:30:56 68° ESE 20:31:23 65° ENE
DELTA 2 R/B (1) 4.3 20:25:56 10° SSW 20:31:05 37° SE 20:31:25 37° SE
Centaur AC-119 4.1 20:29:16 10° SSW 20:29:49 16° SSW 20:29:49 16° SSW
Spot 2 Rocket 3.3 20:26:32 10° SSE 20:31:38 75° ENE 20:32:53 51° N
ARIANE 5 R/B 4.3 20:33:47 10° WSW 20:38:49 68° SSE 21:52:53 10° E
Cosmos 1626 Rocket 3.8 20:36:15 10° S 20:40:02 65° SSW 20:40:02 65° SSW
FengYun 1-2 T 4.2 20:39:34 10° S 20:45:09 82° WSW 20:47:34 36° NNW
Longmarch 3A Rocket 4.0 20:48:10 10° SW 20:50:35 19° SSW 20:50:35 19° SSW
Cosmos 1000 Rocket 4.4 20:46:48 10° S 20:52:27 71° SE 20:52:27 71° SE
Cosmos 1605 Rocket 3.8 20:53:50 77° N 20:54:20 89° W 21:00:28 10° S
ARIANE 5 R/B 4.1 20:53:03 10° WNW 20:55:16 32° NW 20:55:16 32° NW
FENGYUN 3A 3.8 20:51:21 10° S 20:56:45 71° WSW 20:56:53 71° W
BLOCK DM-SL R/B 3.8 20:45:54 10° W 21:01:53 87° N 21:02:23 78° ENE
Cosmos 1943 Rocket 2.6 20:56:58 10° SSW 21:01:25 57° SSW 21:01:25 57° SSW
ARIANE 5 R/B 4.3 21:04:58 10° WSW 21:09:11 31° SSW 21:09:11 31° SSW
ATLAS 2AS CENTAUR R/B 3.7 21:04:25 10° NW 21:11:18 45° WSW 21:17:34 10° S
ARIANE 5 R/B 4.4 21:21:38 10° WSW 21:26:52 83° S 21:27:29 78° ESE
ARIANE 5 R/B 4.4 21:21:38 10° WSW 21:26:52 83° S 21:27:28 78° ESE
Maqsat-H 3.7 21:25:24 10° W 21:32:43 35° SW 21:32:43 35° SW
